BTO6174 SBCG-SBPO

Flight info

Callsign BTO6174
Flight time 0h 58m
Altitude 43000
Route POTLA DCT GAXUT DCT ILMIS DCT PALOX
Aircraft C700/M-SBDGHM1RWXY/LB2

Departure

Time 2026-04-26 23:57
Airport Campo Grande Airport (SBCG)

Arrival

Time 2026-04-27 00:55
Airport Juvenal Loureiro Cardoso Airport (SBPO)
Time Latitude Longitude Altitude Speed Heading
2026-04-26 23:42 -20.45768 -54.66738 1832 ft 0 kts 354°
2026-04-26 23:50 -20.45774 -54.66737 1832 ft 2 kts 353°
2026-04-26 23:50 -20.45791 -54.66735 1832 ft 2 kts 353°
2026-04-26 23:50 -20.45807 -54.66733 1832 ft 2 kts 353°
2026-04-26 23:50 -20.45824 -54.66731 1832 ft 2 kts 350°
2026-04-26 23:51 -20.45839 -54.66726 1832 ft 2 kts 324°
2026-04-26 23:51 -20.45841 -54.66725 1832 ft 0 kts 318°
2026-04-26 23:52 -20.45840 -54.66727 1832 ft 2 kts 313°
2026-04-26 23:52 -20.45829 -54.66763 1832 ft 9 kts 264°
2026-04-26 23:52 -20.45837 -54.66861 1832 ft 16 kts 266°
2026-04-26 23:53 -20.45852 -54.66986 1832 ft 18 kts 263°
2026-04-26 23:53 -20.45865 -54.67110 1832 ft 10 kts 262°
2026-04-26 23:53 -20.45928 -54.67145 1832 ft 13 kts 176°
2026-04-26 23:53 -20.46027 -54.67134 1832 ft 16 kts 174°
2026-04-26 23:54 -20.46146 -54.67119 1831 ft 19 kts 172°
2026-04-26 23:54 -20.46284 -54.67101 1831 ft 21 kts 173°
2026-04-26 23:54 -20.46433 -54.67114 1832 ft 23 kts 215°
2026-04-26 23:54 -20.46557 -54.67232 1832 ft 25 kts 222°
2026-04-26 23:55 -20.46689 -54.67361 1832 ft 27 kts 222°
2026-04-26 23:55 -20.46821 -54.67487 1832 ft 18 kts 223°
2026-04-26 23:55 -20.46884 -54.67522 1832 ft 10 kts 160°
2026-04-26 23:55 -20.46926 -54.67479 1832 ft 7 kts 132°
2026-04-26 23:56 -20.46965 -54.67432 1832 ft 10 kts 129°
2026-04-26 23:56 -20.46953 -54.67353 1832 ft 22 kts 44°
2026-04-26 23:56 -20.46587 -54.67004 1833 ft 120 kts 41°
2026-04-26 23:56 -20.45806 -54.66224 2395 ft 166 kts 43°
2026-04-26 23:57 -20.44925 -54.65331 3554 ft 182 kts 38°
2026-04-26 23:57 -20.43855 -54.64385 4478 ft 213 kts 38°
2026-04-26 23:57 -20.42677 -54.63272 5659 ft 238 kts 39°
2026-04-26 23:57 -20.41407 -54.62019 6791 ft 270 kts 44°
2026-04-26 23:58 -20.40362 -54.60253 7002 ft 288 kts 66°
2026-04-26 23:58 -20.39891 -54.58160 7011 ft 295 kts 83°
2026-04-26 23:58 -20.39968 -54.55965 7005 ft 296 kts 94°
2026-04-26 23:58 -20.40109 -54.53776 6999 ft 295 kts 92°
2026-04-26 23:59 -20.40215 -54.51592 6997 ft 294 kts 92°
2026-04-26 23:59 -20.40324 -54.49395 6986 ft 295 kts 92°
2026-04-26 23:59 -20.40483 -54.47202 6985 ft 295 kts 98°
2026-04-26 23:59 -20.41119 -54.45125 6968 ft 297 kts 113°
2026-04-27 00:00 -20.41960 -54.43114 6961 ft 295 kts 113°
2026-04-27 00:00 -20.42783 -54.41100 6952 ft 296 kts 113°
2026-04-27 00:00 -20.43599 -54.39086 6959 ft 295 kts 113°
2026-04-27 00:00 -20.44655 -54.37215 6958 ft 296 kts 129°
2026-04-27 00:01 -20.46150 -54.35710 7095 ft 302 kts 146°
2026-04-27 00:01 -20.47953 -54.34659 8819 ft 290 kts 156°
2026-04-27 00:01 -20.49813 -54.33741 10367 ft 302 kts 156°
2026-04-27 00:01 -20.51809 -54.32770 11375 ft 328 kts 157°
2026-04-27 00:02 -20.53910 -54.31768 12915 ft 331 kts 158°
2026-04-27 00:02 -20.56034 -54.30746 14363 ft 339 kts 157°
2026-04-27 00:02 -20.57472 -54.30046 15173 ft 345 kts 158°
2026-04-27 00:02 -20.59686 -54.28973 16399 ft 354 kts 158°
2026-04-27 00:03 -20.61960 -54.27875 17600 ft 363 kts 158°
2026-04-27 00:03 -20.65074 -54.26372 19009 ft 375 kts 158°
2026-04-27 00:03 -20.66699 -54.25583 19679 ft 381 kts 158°
2026-04-27 00:03 -20.69106 -54.24415 20641 ft 389 kts 158°
2026-04-27 00:04 -20.71604 -54.23207 21590 ft 398 kts 157°
2026-04-27 00:04 -20.74164 -54.21967 22522 ft 407 kts 157°
2026-04-27 00:04 -20.76773 -54.20702 23451 ft 416 kts 157°
2026-04-27 00:04 -20.79463 -54.19397 24273 ft 422 kts 157°
2026-04-27 00:05 -20.82147 -54.18095 25144 ft 426 kts 158°
2026-04-27 00:05 -20.84870 -54.16774 25995 ft 431 kts 158°
2026-04-27 00:05 -20.87618 -54.15440 26839 ft 436 kts 158°
2026-04-27 00:05 -20.90377 -54.14133 27668 ft 440 kts 161°
2026-04-27 00:06 -20.93366 -54.13248 28481 ft 441 kts 172°
2026-04-27 00:06 -20.96358 -54.12614 29278 ft 446 kts 172°
2026-04-27 00:06 -20.99419 -54.11951 30069 ft 451 kts 172°
2026-04-27 00:06 -21.02512 -54.11276 30761 ft 456 kts 172°
2026-04-27 00:07 -21.05671 -54.10591 31465 ft 459 kts 172°
2026-04-27 00:07 -21.08783 -54.09921 32099 ft 464 kts 172°
2026-04-27 00:07 -21.12005 -54.09223 32730 ft 468 kts 172°
2026-04-27 00:07 -21.15189 -54.08530 33388 ft 470 kts 171°
2026-04-27 00:08 -21.18381 -54.07835 34260 ft 466 kts 171°
2026-04-27 00:08 -21.21600 -54.07138 35027 ft 463 kts 171°
2026-04-27 00:08 -21.24742 -54.06457 35815 ft 460 kts 171°
2026-04-27 00:08 -21.27880 -54.05775 36562 ft 458 kts 171°
2026-04-27 00:09 -21.31003 -54.05095 37249 ft 456 kts 171°
2026-04-27 00:09 -21.34105 -54.04421 37895 ft 454 kts 171°
2026-04-27 00:09 -21.37201 -54.03748 38500 ft 452 kts 171°
2026-04-27 00:09 -21.40280 -54.03079 38976 ft 451 kts 172°
2026-04-27 00:10 -21.43361 -54.02407 39422 ft 449 kts 172°
2026-04-27 00:10 -21.46418 -54.01741 39828 ft 448 kts 172°
2026-04-27 00:10 -21.49466 -54.01077 40231 ft 446 kts 172°
2026-04-27 00:10 -21.52510 -54.00414 40600 ft 445 kts 172°
2026-04-27 00:11 -21.55540 -53.99753 40944 ft 444 kts 172°
2026-04-27 00:11 -21.58565 -53.99092 41268 ft 443 kts 172°
2026-04-27 00:11 -21.61584 -53.98435 41570 ft 442 kts 172°
2026-04-27 00:11 -21.64633 -53.97768 41864 ft 441 kts 172°
2026-04-27 00:12 -21.67638 -53.97112 42141 ft 440 kts 173°
2026-04-27 00:12 -21.70643 -53.96455 42405 ft 439 kts 173°
2026-04-27 00:12 -21.73634 -53.95802 42653 ft 439 kts 173°
2026-04-27 00:12 -21.76625 -53.95147 42875 ft 438 kts 173°
2026-04-27 00:13 -21.82647 -53.93831 42928 ft 446 kts 173°
2026-04-27 00:13 -21.88804 -53.92482 42935 ft 455 kts 173°
2026-04-27 00:14 -21.95105 -53.91100 42944 ft 463 kts 173°
2026-04-27 00:14 -22.01428 -53.89713 42947 ft 470 kts 173°
2026-04-27 00:15 -22.07932 -53.88284 42947 ft 477 kts 173°
2026-04-27 00:15 -22.14520 -53.86835 42945 ft 483 kts 173°
2026-04-27 00:16 -22.21107 -53.85385 42949 ft 484 kts 173°
2026-04-27 00:16 -22.27566 -53.83528 42947 ft 477 kts 167°
2026-04-27 00:17 -22.33927 -53.81528 42947 ft 475 kts 168°
2026-04-27 00:17 -22.40270 -53.79502 42945 ft 476 kts 167°
2026-04-27 00:18 -22.46624 -53.77484 42947 ft 476 kts 168°
2026-04-27 00:18 -22.52992 -53.75453 42950 ft 476 kts 167°
2026-04-27 00:19 -22.59361 -53.73423 42945 ft 477 kts 168°
2026-04-27 00:19 -22.65742 -53.71386 42940 ft 478 kts 168°
2026-04-27 00:20 -22.72135 -53.69344 42954 ft 479 kts 168°
2026-04-27 00:20 -22.78524 -53.67300 42948 ft 479 kts 168°
2026-04-27 00:21 -22.84928 -53.65251 42957 ft 480 kts 167°
2026-04-27 00:21 -22.91342 -53.63195 42964 ft 481 kts 168°
2026-04-27 00:22 -22.97755 -53.61138 42964 ft 481 kts 168°
2026-04-27 00:22 -23.04177 -53.59077 42960 ft 481 kts 168°
2026-04-27 00:23 -23.10589 -53.57016 42960 ft 480 kts 168°
2026-04-27 00:23 -23.17012 -53.54950 42960 ft 481 kts 168°
2026-04-27 00:24 -23.23431 -53.52883 42965 ft 481 kts 168°
2026-04-27 00:24 -23.29848 -53.50814 42967 ft 481 kts 168°
2026-04-27 00:25 -23.36256 -53.48747 42971 ft 481 kts 168°
2026-04-27 00:25 -23.42687 -53.46723 42971 ft 481 kts 168°
2026-04-27 00:26 -23.49103 -53.44614 42971 ft 482 kts 167°
2026-04-27 00:26 -23.55539 -53.42548 42976 ft 482 kts 168°
2026-04-27 00:27 -23.61959 -53.40456 42978 ft 482 kts 167°
2026-04-27 00:27 -23.67325 -53.38719 42977 ft 482 kts 168°
2026-04-27 00:28 -23.73759 -53.36627 42977 ft 483 kts 167°
2026-04-27 00:28 -23.80210 -53.34530 42973 ft 484 kts 167°
2026-04-27 00:29 -23.86667 -53.32428 42972 ft 484 kts 167°
2026-04-27 00:29 -23.93120 -53.30325 42973 ft 484 kts 167°
2026-04-27 00:30 -23.99552 -53.28227 42974 ft 485 kts 167°
2026-04-27 00:30 -24.06066 -53.26100 42974 ft 486 kts 167°
2026-04-27 00:31 -24.12541 -53.23984 42970 ft 486 kts 167°
2026-04-27 00:31 -24.18988 -53.21873 42971 ft 486 kts 167°
2026-04-27 00:32 -24.25530 -53.19731 42972 ft 487 kts 167°
2026-04-27 00:32 -24.31990 -53.17612 42676 ft 491 kts 167°
2026-04-27 00:33 -24.35270 -53.16536 41903 ft 491 kts 167°
2026-04-27 00:33 -24.38522 -53.15465 41158 ft 485 kts 167°
2026-04-27 00:33 -24.41737 -53.14407 40337 ft 480 kts 167°
2026-04-27 00:33 -24.44932 -53.13360 39383 ft 468 kts 167°
2026-04-27 00:34 -24.48065 -53.12329 38429 ft 473 kts 167°
2026-04-27 00:34 -24.51236 -53.11290 37384 ft 478 kts 167°
2026-04-27 00:34 -24.54431 -53.10237 36384 ft 479 kts 167°
2026-04-27 00:34 -24.57670 -53.09174 35424 ft 478 kts 169°
2026-04-27 00:35 -24.60909 -53.08530 34503 ft 470 kts 179°
2026-04-27 00:35 -24.64168 -53.08358 33554 ft 467 kts 185°
2026-04-27 00:35 -24.67378 -53.08347 32573 ft 467 kts 185°
2026-04-27 00:35 -24.70647 -53.08262 31622 ft 474 kts 182°
2026-04-27 00:36 -24.73956 -53.07894 30693 ft 482 kts 178°
2026-04-27 00:36 -24.77304 -53.07403 29753 ft 486 kts 178°
2026-04-27 00:36 -24.80651 -53.07053 28716 ft 484 kts 181°
2026-04-27 00:36 -24.84015 -53.06828 27718 ft 479 kts 182°
2026-04-27 00:37 -24.87318 -53.06537 26761 ft 474 kts 180°
2026-04-27 00:37 -24.90567 -53.06157 26100 ft 464 kts 179°
2026-04-27 00:37 -24.93754 -53.05820 25641 ft 460 kts 181°
2026-04-27 00:37 -24.96960 -53.05550 25188 ft 462 kts 181°
2026-04-27 00:38 -25.00164 -53.05257 24746 ft 461 kts 180°
2026-04-27 00:38 -25.03364 -53.04921 24306 ft 460 kts 180°
2026-04-27 00:38 -25.06547 -53.04596 23873 ft 459 kts 180°
2026-04-27 00:38 -25.09720 -53.04299 23427 ft 457 kts 181°
2026-04-27 00:39 -25.12874 -53.04000 23048 ft 452 kts 180°
2026-04-27 00:39 -25.16003 -53.03687 22749 ft 451 kts 180°
2026-04-27 00:39 -25.19115 -53.03378 22445 ft 448 kts 180°
2026-04-27 00:39 -25.22196 -53.03078 22143 ft 439 kts 181°
2026-04-27 00:40 -25.25205 -53.02782 21845 ft 428 kts 181°
2026-04-27 00:40 -25.28192 -53.02496 21552 ft 437 kts 181°
2026-04-27 00:40 -25.31218 -53.02204 21261 ft 436 kts 181°
2026-04-27 00:40 -25.34236 -53.01901 20914 ft 435 kts 180°
2026-04-27 00:41 -25.37248 -53.01603 20381 ft 434 kts 181°
2026-04-27 00:41 -25.40236 -53.01310 19822 ft 428 kts 181°
2026-04-27 00:41 -25.43191 -53.01022 19275 ft 422 kts 181°
2026-04-27 00:41 -25.46100 -53.00737 18736 ft 418 kts 181°
2026-04-27 00:42 -25.48980 -53.00452 18191 ft 413 kts 181°
2026-04-27 00:42 -25.51837 -53.00172 17584 ft 409 kts 181°
2026-04-27 00:42 -25.54652 -52.99894 16984 ft 404 kts 181°
2026-04-27 00:42 -25.57434 -52.99621 16383 ft 398 kts 181°
2026-04-27 00:43 -25.60186 -52.99350 15804 ft 393 kts 181°
2026-04-27 00:43 -25.62885 -52.99083 15243 ft 388 kts 181°
2026-04-27 00:43 -25.65554 -52.98820 14890 ft 379 kts 181°
2026-04-27 00:43 -25.68182 -52.98563 14712 ft 380 kts 181°
2026-04-27 00:44 -25.70808 -52.98304 14697 ft 380 kts 181°
2026-04-27 00:44 -25.73453 -52.98046 14675 ft 382 kts 181°
2026-04-27 00:44 -25.76098 -52.97782 14651 ft 382 kts 181°
2026-04-27 00:44 -25.78752 -52.97520 14633 ft 382 kts 181°
2026-04-27 00:45 -25.81402 -52.97259 14575 ft 383 kts 181°
2026-04-27 00:45 -25.84067 -52.96995 14158 ft 383 kts 181°
2026-04-27 00:45 -25.86692 -52.96733 13657 ft 373 kts 181°
2026-04-27 00:45 -25.89202 -52.96478 13152 ft 351 kts 181°
2026-04-27 00:46 -25.91574 -52.96241 12704 ft 333 kts 181°
2026-04-27 00:46 -25.93832 -52.96023 12275 ft 318 kts 181°
2026-04-27 00:46 -25.95990 -52.95812 11863 ft 306 kts 181°
2026-04-27 00:46 -25.98082 -52.95606 11463 ft 298 kts 180°
2026-04-27 00:47 -26.00115 -52.95405 11071 ft 296 kts 180°
2026-04-27 00:47 -26.02164 -52.95202 10685 ft 294 kts 180°
2026-04-27 00:47 -26.04198 -52.95002 10301 ft 293 kts 179°
2026-04-27 00:47 -26.06226 -52.94800 9917 ft 291 kts 179°
2026-04-27 00:48 -26.08234 -52.94600 9508 ft 288 kts 178°
2026-04-27 00:48 -26.10222 -52.94404 9128 ft 286 kts 178°
2026-04-27 00:48 -26.12201 -52.94206 8750 ft 284 kts 178°
2026-04-27 00:48 -26.14188 -52.94009 8375 ft 282 kts 178°
2026-04-27 00:49 -26.16112 -52.93817 8008 ft 280 kts 177°
2026-04-27 00:49 -26.18048 -52.93625 7624 ft 278 kts 177°
2026-04-27 00:49 -26.19969 -52.93434 7270 ft 276 kts 176°
2026-04-27 00:49 -26.21900 -52.93242 6903 ft 273 kts 176°
2026-04-27 00:50 -26.23787 -52.93051 6540 ft 271 kts 175°
2026-04-27 00:50 -26.27237 -52.91529 5869 ft 268 kts 145°
2026-04-27 00:50 -26.28572 -52.90079 5675 ft 270 kts 130°
2026-04-27 00:51 -26.29530 -52.88278 5488 ft 273 kts 116°
2026-04-27 00:51 -26.30035 -52.86232 5295 ft 275 kts 100°
2026-04-27 00:51 -26.30034 -52.84116 5206 ft 268 kts 85°
2026-04-27 00:51 -26.29605 -52.82274 5147 ft 239 kts 71°
2026-04-27 00:52 -26.28857 -52.80683 4930 ft 215 kts 57°
2026-04-27 00:52 -26.28003 -52.79378 4672 ft 200 kts 57°
2026-04-27 00:52 -26.27236 -52.78141 4407 ft 187 kts 58°
2026-04-27 00:52 -26.26566 -52.77086 4189 ft 156 kts 57°
2026-04-27 00:53 -26.25931 -52.76088 3974 ft 156 kts 57°
2026-04-27 00:53 -26.25307 -52.75102 3774 ft 156 kts 57°
2026-04-27 00:53 -26.24683 -52.74119 3588 ft 154 kts 57°
2026-04-27 00:53 -26.24062 -52.73145 3418 ft 153 kts 57°
2026-04-27 00:54 -26.23435 -52.72161 3305 ft 156 kts 56°
2026-04-27 00:54 -26.22820 -52.71180 3053 ft 153 kts 57°
2026-04-27 00:54 -26.22238 -52.70268 2749 ft 133 kts 55°
2026-04-27 00:54 -26.21757 -52.69514 2696 ft 96 kts 55°
2026-04-27 00:55 -26.21599 -52.69263 2698 ft 12 kts 54°
2026-04-27 00:55 -26.21594 -52.69227 2697 ft 5 kts 126°
2026-04-27 00:55 -26.21608 -52.69215 2697 ft 0 kts 147°
2026-04-27 00:55 -26.21610 -52.69214 2697 ft 2 kts 147°
2026-04-27 00:56 -26.21628 -52.69195 2698 ft 2 kts 105°
2026-04-27 00:56 -26.21621 -52.69158 2699 ft 5 kts 94°
2026-04-27 00:56 -26.21630 -52.69142 2699 ft 0 kts 146°